Regional Weather Roundup
Issued by NWS

Home | Current Version | Previous Version | Graphics & Text | Print | Product List | Glossary On
Versions: 1 2 3 4 5 6 7 8 9 10 11 12 13 14 15 16 17 18 19 20 21 22 23 24 25 26 27 28 29 30 31 32 33 34 35 36 37 38 39 40 41 42 43 44 45 46 47 48 49 50
000
ASUS43 KBIS 291210
RWRND

NORTH DAKOTA REGIONAL WEATHER ROUNDUP
NATIONAL WEATHER SERVICE BISMARCK ND
700 AM CDT MON JUN 29 2015

NOTE: "FAIR" INDICATES FEW OR NO CLOUDS BELOW 12,000 FEET WITH NO
SIGNIFICANT WEATHER AND/OR OBSTRUCTIONS TO VISIBILITY.


NDZ001>003-009>011-017-291300-
NORTHWEST NORTH DAKOTA

CITY           SKY/WX    TMP DP  RH WIND       PRES   REMARKS
WILLISTON      PTCLDY    63  57  81 CALM      30.00R
6HR MIN TEMP:  56; 6HR MAX TEMP:  67;

MINOT          PTCLDY    68  58  70 SW8       29.94R
MINOT AFB      MOCLDY    67  65  96 W7        29.93R
$$

NDZ018>021-031>035-040>046-291300-
SOUTHWEST NORTH DAKOTA

CITY           SKY/WX    TMP DP  RH WIND       PRES   REMARKS
BISMARCK       CLEAR     60  56  86 CALM      29.98R
6HR MIN TEMP:  58; 6HR MAX TEMP:  62;

DICKINSON      CLEAR     59  56  89 W5        30.02R
GARRISON         N/A     57  54  89 CALM      29.97R
6HR MIN TEMP:  56; 6HR MAX TEMP:  64;

HETTINGER ARPT CLEAR     54  52  93 CALM      30.06R
$$

NDZ004>008-012>016-024-026-027-054-291300-
NORTHEAST NORTH DAKOTA

CITY           SKY/WX    TMP DP  RH WIND       PRES   REMARKS
GRAND FORKS    CLOUDY    63  60  90 W7        29.82R
GRND FRKS AFB  SUNNY     67  61  82 NW9       29.84R
DEVILS LAKE    SUNNY     64  55  72 W5        29.89R
$$

NDZ022-023-025-028>030-036>039-047>053-291300-
SOUTHEAST NORTH DAKOTA

CITY           SKY/WX    TMP DP  RH WIND       PRES   REMARKS
FARGO          SUNNY     64  60  87 W5        29.86R FOG
6HR MIN TEMP:  61; 6HR MAX TEMP:  66;

JAMESTOWN      MOSUNNY   64  59  83 W7        29.91S
$$



USA.gov is the U.S. government's official web portal to all federal, state and local government web resources and services.